Find Starlink 1571

NORAD ID: 46081 Int'l Des: 2020-055 Owner: SPXS Country: US Constellation: starlink decayed
LEOCIRCULAR
Vis

Historical Track — Feb 22, 2025

正在加载3D地球...

关于 Starlink 1571

正在加载描述...

高度历史

Loading altitude history...

两行轨道根数

1 46081U 20055BG 25053.02976359 .02857942 12395-4 10000-3 0 9992
2 46081 53.0452 345.1882 0013991 156.9575 309.6254 16.43085236251670
Epoch: Feb 22, 2025 • Age: 10622 hours

当前状态

Position data unavailable
发射日期 Aug 7, 2020
运行时间 5.7 years
衰减日期 Feb 22, 2025
类型 internet

技术详情

分类 Payload
质量 260.00 kg
干质量 248.00 kg
总质量 260.00 kg
长度 0.20 m
直径 2.80 m
跨度 9.00 m
形状 Box + pan
制造商 SPXS
平台类型 Starlink
阶段状态 Reentered
所有者/国家 SPXS/US

Most Searched